User: anonymous   Login
Location: Oshawa
(43.9000°N, 78.8670°W)
Time: 19:12:34
(UTC-05:00)
Language:

Cosmos 1707 Rocket - Orbit

View from above orbital plane
View from above orbital plane
View from above satellite
View from above satellite

Ground track
Ground track

The orbit data is extracted from the following two-line orbital elements,

1 16327U 85113B   16035.90897133  .00000229  00000-0  24982-4 0  9994
2 16327  82.5338 198.1740 0018894 187.2069 332.9138 14.83252408628016
Epoch (UTC): 04 February 2016 21:48:55
Eccentricity: 0.0018894
inclination: 82.5338°
perigee height: 606 km
apogee height: 632 km
right ascension of ascending node: 198.1740°
argument of perigee: 187.2069°
revolutions per day: 14.83252408
mean anomaly at epoch: 332.9138°
orbit number at epoch: 62801

The dashed part of the orbit path shows where the satellite is in the earth's shadow,  

DLR